Location: Auttagershofen
(48.1940°N, 10.0237°E)
Time: 22:32:57
(UTC+00:00)

Lacrosse 5 rocket - Pass Details

Date: 15 April 2026
Orbit: 390 x 471 km, 57.0° (Epoch: 19 May)

Event Time Altitude Azimuth Distance (km) Brightness Sun altitude
Rises 20:22:15 0° 277° (W) 2,292 5.4 -19.8°
Reaches altitude 10° 20:24:40 10° 295° (WNW) 1,431 4.5 -20.1°
Maximum altitude 20:27:08 20° 346° (NNW) 970 3.2 -20.4°
Drops below altitude 10° 20:29:36 10° 37° (NE) 1,432 3.5 -20.7°
Enters shadow 20:29:53 - 40° (NE) 1,526 3.6 -20.8°
